Simultaneous Nadir Overpasses (SNOs) Predictions

Prediction of SNOs between GOES-17 and NOAA-19 Satellite Orbit:

Table of predicted SNOs for the next 14.0 days since TLE Epoch: 7/24/2020
Index Date Time (GOES-17) GOES-17 Lat,Lon NOAA-19 Lat,Lon Distance(km) Time Diff (sec)
1 07/25/2020 03:18:17 -0.00,-137.19 -0.45,-139.00 207.65 80
2 07/26/2020 03:03:55 -0.00,-137.19 0.22,-136.15 118.58 80
3 07/27/2020 02:52:14 -0.00,-137.19 0.88,-133.29 444.60 80
4 07/28/2020 15:24:53 0.00,-137.19 0.91,-141.10 446.67 80
5 07/29/2020 15:13:12 0.00,-137.19 0.26,-138.25 121.21 80
6 07/30/2020 15:04:10 0.00,-137.18 -0.39,-135.39 204.14 80
7 08/02/2020 03:22:29 -0.00,-137.15 -0.77,-140.35 365.37 80
8 08/03/2020 03:10:47 -0.01,-137.14 -0.10,-137.49 40.34 80
9 08/04/2020 03:01:46 -0.01,-137.13 0.57,-134.64 284.68 80
10 08/06/2020 15:20:05 0.01,-137.11 0.59,-139.60 283.90 80
11 08/07/2020 15:11:03 0.01,-137.10 -0.07,-136.74 40.81 80
